Location: Shandelee
(41.8790°N, 74.8713°W)
Time: 03:12:11
(UTC+00:00)

ARGOS - Pass Details

Date: 29 October 2020
Orbit: 820 x 835 km, 98.4° (Epoch: 23 November)

Event Time Altitude Azimuth Distance (km) Brightness Sun altitude
Exits shadow 23:21:55 26° 93° (E) 1,602 4.0 -16.3°
Maximum altitude 23:23:22 29° 66° (ENE) 1,478 3.9 -16.6°
Drops below altitude 10° 23:28:00 10° 8° (N) 2,455 5.5 -17.5°
Sets 23:30:37 0° 357° (N) 3,393 6.4 -18.0°
